Погода в Берикее

Россия / Республика Дагестан     42°13′21″N   48°04′12″E
темп.,
°C
ветер,
м/с
пор.,
м/с
влажн.,
%
обл.,
%
осадки,
мм/ч
давл.,
гПа
погр.,
м
25 июня, сб
сб2500:00+19зсз1179100 0.1 100943
03:00+18з218427 0.1 100931
06:00+21з1173100 0.0 1009163
09:00+26св435510 0.0 10091019
12:00+27св545219 0.0 10081211
15:00+26ссв4357100 0.3 1008878
18:00+24с2361100 0.0 1008523
21:00+21зсз1174100 0.0 100953
26 июня, вс
вс2600:00+21зюз0073100 0.0 100817
03:00+21зсз2475100 0.0 1008110
06:00+23зюз1265100 0.0 1008182
09:00+27ссв4348100 0.0 1007955
12:00+28ссв5546100 0.0 1006986
15:00+29с674255 0.0 10051197
18:00+27с4846100 0.0 1004434
21:00+23зсз2270100 0.4 100648
27 июня, пн
пн2700:00+22зюз237699 0.7 100644
03:00+21сз23770 0.7 100687
06:00+23з23620 0.0 1007130
09:00+31с67380 0.0 10071160
12:00+32с1111380 0.0 10071372
15:00+31ссз1113420 0.0 10071304
18:00+29ссз811452 0.0 10071095
21:00+24зсз37648 0.0 1007180
28 июня, вт
вт2800:00+25сз51153100 0.0 1007445
03:00+24ссз6134814 0.0 1006386
06:00+26ссз610420 0.0 1006514
09:00+30с1011330 0.0 10061096
12:00+30с1112350 0.0 10061244
15:00+27с1013510 0.0 1007870
18:00+25с712590 0.0 1009713
21:00+21зсз25690 0.0 1010141
29 июня, ср
ср2900:00+22зюз2363100 0.1 101046
03:00+21зюз226295 0.1 101027
06:00+25зсз12460 0.0 1011148
09:00+30ссв66280 0.0 10111398
12:00+30ссв77290 0.0 10111399
15:00+28ссв55420 0.0 10111117
18:00+24ссв44660 0.0 1013647
21:00+20с249158 0.0 1014194